Location: Unspecified
(0.0000°N, 0.0000°E)
Time: 07:59:00
(UTC+00:00)

ISS - Pass Details

Date: 16 September 2021
Orbit: 419 x 423 km, 51.6° (Epoch: 18 September)

Event Time Altitude Azimuth Distance (km) Brightness Sun altitude
Exits shadow 05:23:26 - 313° (NW) 2,120 -0.6 -7.9°
Reaches altitude 10° 05:25:00 10° 307° (NW) 1,497 -1.4 -7.5°
Maximum altitude 05:28:12 42° 235° (SW) 611 -3.3 -6.7°
Drops below altitude 10° 05:31:26 10° 162° (SSE) 1,504 -0.7 -5.9°
Sets 05:33:36 0° 155° (SSE) 2,371 0.4 -5.3°
